"Pseudo-MPEC" for P10N2j6

Created 2019 Apr 23 0:07:04 UT using Find_Orb

Click here for an explanation of pseudo-MPECs

 
 Astrometry: 
     P10N2j6  C2019 04 08;6'[C,%f9t3CFvNLU/,Kuy_@\`^JUt+k=7p)PEpMcp$kBY!N*P(dF51
     P10N2j6  C2019 04 08SA^i[Bm6py[gjRpAwfH:7L,Y_abAstrometryC7D-redacted;DeF51
     P10N2j6  C2019 04 08lgFh[6_ZrL$$wEU=HoTt!h4bPWTt?x9clickef_S!Ol5!shere9%F51
     P10N2j6  C2019 04 08J9ZgaPv5+dIHn[hT'?t@ruI?0K8JPbce)$o%for9C=7x$YR3:q-4F51
     P10N2j6  C2019 04 09C)^m/Tq9p4XT8M3R(1o*HGc\Svv$]1GfI42L+%C@^QXeddmu3Rx4F51
     P10N2j6  C2019 04 09;4gk0kNumox1]0]h6ZbN1A9P_-%s9W-.kuyV@'QgP*x3:6V*JX69F51
     P10N2j6  C2019 04 09rfyYELr#YZn.explanationYJ):VpE`I2T_h9/aqECeSVe%(h9b6F51
     P10N2j6  C2019 04 09!ua*6qU51$G?=6Xw*Q'k+^0dfx#)5Y$Pcn!)2vQ+9Ad@rnF#Okb3F51

Station data:
(F51) Pan-STARRS 1, Haleakala  (N20.707235 W156.255910)  US/Hawaii.
   Observers N. Primak, A. Schultz, S. Watters, J. Thiel, T. Goggia. Measurer
   PS1 Science Consortium. 1.8-m Ritchey-Chrétien + CCD.

Orbital elements:  P10N2j6
   Perihelion 2019 Mar 6.855880 +/- 54.4 TT = 20:32:28 (JD 2458549.355880)
Epoch 2019 Apr  9.0 TT = JDT 2458582.5   Earth MOID: 0.4601   AutoNEOCP
M   7.74851299 +/- 14               (J2000 ecliptic)
n   0.23378243 +/- 0.135            Peri.   26.17178 +/- 80
a   2.60972534 +/- 1                Node   155.96082 +/- 31
e   0.4473202 +/- 0.18              Incl.   13.45951 +/- 3.1
P   4.22                   H 21.9   G  0.15   U 11.4  SR
q 1.44234247 +/- 0.285    Q 3.77710821 +/- 5.12
From 8 observations 2019 Apr. 8-9 (25.4 hr); mean residual 0".17
Residuals in arcseconds: 
190408 F51  .13+  .19+    190408 F51  .28-  .41-    190409 F51  .15-  .05-    
190408 F51  .15+  .26+    190409 F51  .02-  .10+    190409 F51  .07+  .10-    
190408 F51  .00   .06-    190409 F51  .11+  .06+    

Ephemerides (geocentric):
Date (UTC) HH   RA              Dec         delta   r     elong  mag " sig PA
---- -- -- --  -------------   -----------  ------ ------ -----  --- ---- ---
2019 04 23 00  14 48 29.482   +17 22 57.34  .56039 1.5102 148.1 22.6 0.0  159
2019 04 23 01  14 48 29.120   +17 23 18.93  .56052 1.5103 148.1 22.6 0.0  159
2019 04 23 02  14 48 28.756   +17 23 40.45  .56064 1.5104 148.1 22.6 0.0  159
2019 04 23 03  14 48 28.390   +17 24 01.89  .56077 1.5105 148.1 22.6 0.0  159
2019 04 23 04  14 48 28.023   +17 24 23.26  .56089 1.5107 148.0 22.6 0.0  159
2019 04 23 05  14 48 27.654   +17 24 44.56  .56102 1.5108 148.0 22.6 0.0  159
2019 04 23 06  14 48 27.283   +17 25 05.79  .56114 1.5109 148.0 22.6 0.0  159
2019 04 23 07  14 48 26.911   +17 25 26.94  .56127 1.5110 148.0 22.6 0.0  159
2019 04 23 08  14 48 26.536   +17 25 48.01  .56139 1.5111 148.0 22.6 0.0  159
2019 04 23 09  14 48 26.160   +17 26 09.02  .56152 1.5112 148.0 22.6 0.0  159
2019 04 23 10  14 48 25.783   +17 26 29.95  .56165 1.5114 148.0 22.6 0.0  159
2019 04 23 11  14 48 25.403   +17 26 50.80  .56177 1.5115 148.0 22.6 0.0  159
2019 04 23 12  14 48 25.022   +17 27 11.58  .56190 1.5116 148.0 22.6 0.0  159
2019 04 23 13  14 48 24.639   +17 27 32.29  .56203 1.5117 148.0 22.6 0.0  159
2019 04 23 14  14 48 24.255   +17 27 52.93  .56216 1.5118 148.0 22.6 0.0  159
2019 04 23 15  14 48 23.869   +17 28 13.49  .56228 1.5119 148.0 22.6 0.0  159
2019 04 23 16  14 48 23.481   +17 28 33.97  .56241 1.5121 148.0 22.6 0.0  159
2019 04 23 17  14 48 23.091   +17 28 54.39  .56254 1.5122 148.0 22.6 0.0  159
2019 04 23 18  14 48 22.700   +17 29 14.73  .56267 1.5123 148.0 22.6 0.0  159
2019 04 23 19  14 48 22.307   +17 29 34.99  .56280 1.5124 148.0 22.6 0.0  159
2019 04 23 20  14 48 21.913   +17 29 55.18  .56293 1.5125 148.0 22.6 0.0  159
2019 04 23 21  14 48 21.517   +17 30 15.30  .56306 1.5126 148.0 22.6 0.0  159
2019 04 23 22  14 48 21.119   +17 30 35.35  .56318 1.5128 148.0 22.6 0.0  159
2019 04 23 23  14 48 20.720   +17 30 55.32  .56331 1.5129 148.0 22.6 0.0  159
2019 04 24 00  14 48 20.319   +17 31 15.21  .56344 1.5130 148.0 22.6 0.0  159
2019 04 24 01  14 48 19.916   +17 31 35.03  .56357 1.5131 148.0 22.6 0.0  159
2019 04 24 02  14 48 19.512   +17 31 54.78  .56370 1.5132 148.0 22.6 0.0  159
2019 04 24 03  14 48 19.107   +17 32 14.46  .56383 1.5133 148.0 22.6 0.0  159
2019 04 24 04  14 48 18.699   +17 32 34.06  .56397 1.5135 147.9 22.6 0.0  159
2019 04 24 05  14 48 18.290   +17 32 53.59  .56410 1.5136 147.9 22.6 0.0  159
2019 04 24 06  14 48 17.880   +17 33 13.04  .56423 1.5137 147.9 22.6 0.0  159
2019 04 24 07  14 48 17.468   +17 33 32.42  .56436 1.5138 147.9 22.6 0.0  159
2019 04 24 08  14 48 17.054   +17 33 51.72  .56449 1.5139 147.9 22.6 0.0  159
2019 04 24 09  14 48 16.639   +17 34 10.95  .56462 1.5140 147.9 22.6 0.0  159
2019 04 24 10  14 48 16.223   +17 34 30.11  .56475 1.5142 147.9 22.6 0.0  159
2019 04 24 11  14 48 15.805   +17 34 49.19  .56489 1.5143 147.9 22.6 0.0  159
2019 04 24 12  14 48 15.385   +17 35 08.20  .56502 1.5144 147.9 22.6 0.0  159
2019 04 24 13  14 48 14.964   +17 35 27.14  .56515 1.5145 147.9 22.6 0.0  159
2019 04 24 14  14 48 14.541   +17 35 46.00  .56528 1.5146 147.9 22.6 0.0  159
2019 04 24 15  14 48 14.117   +17 36 04.78  .56542 1.5148 147.9 22.6 0.0  159
2019 04 24 16  14 48 13.691   +17 36 23.50  .56555 1.5149 147.9 22.6 0.0  159
2019 04 24 17  14 48 13.264   +17 36 42.13  .56568 1.5150 147.9 22.6 0.0  159
2019 04 24 18  14 48 12.835   +17 37 00.70  .56582 1.5151 147.9 22.6 0.0  159
2019 04 24 19  14 48 12.405   +17 37 19.19  .56595 1.5152 147.9 22.6 0.0  159
2019 04 24 20  14 48 11.973   +17 37 37.60  .56609 1.5154 147.9 22.6 0.0  159
2019 04 24 21  14 48 11.540   +17 37 55.95  .56622 1.5155 147.9 22.6 0.0  159
2019 04 24 22  14 48 11.106   +17 38 14.21  .56636 1.5156 147.9 22.6 0.0  159
2019 04 24 23  14 48 10.670   +17 38 32.41  .56649 1.5157 147.9 22.6 0.0  159